Regional Weather Roundup
Issued by NWS Grand Forks, ND

Home | Current Version | Previous Version | Text Only | Print | Product List | Glossary Off
Versions: 1 2 3 4 5 6 7 8 9 10 11 12 13 14 15 16 17 18 19 20 21 22 23 24 25 26 27 28 29 30 31 32 33 34 35 36 37 38 39 40 41 42 43 44 45 46 47 48 49 50

000
ASUS43 KFGF 251431
RWRFGF
PRAIRIE TO PINES  WEATHER ROUNDUP
NATIONAL WEATHER SERVICE EASTERN NORTH DAKOTA/GRAND FORKS ND
800 AM CST SUN JAN 25 2015

 **SATELLITE DATA USED TO AUGMENT SKY COVER AT AUTOMATED STATIONS**
 *****  WEATHER ACROSS EASTERN NORTH DAKOTA  *****

CITY           SKY/WX    TMP DP  RH WIND       PRES   REMARKS
GRAND FORKS    PTCLDY    10   6  84 NW5       30.03R WCI   2
GRAND FRKS AFB CLEAR      8   4  83 N6        30.04R WCI  -2
GRAND FRKS NWS   N/A     10 N/A N/A N3          N/A
DEVILS LAKE    CLOUDY    18  10  73 CALM      29.99R
FARGO          MOCLDY    20  13  74 N8        30.00R WCI  10
WAHPETON ARPT  PTSUNNY   21  16  79 N7        29.99R WCI  13
$$

 ***** WEATHER ACROSS CENTRAL AND WESTERN NORTH DAKOTA  *****

CITY           SKY/WX    TMP DP  RH WIND       PRES   REMARKS
BISMARCK       CLOUDY    36  32  85 NW8       29.98R
MINOT          CLOUDY    23  20  88 N6        29.98R WCI  16
JAMESTOWN      CLOUDY    20  16  84 N5        29.98R WCI  13
MINOT AFB      CLOUDY    21  19  93 NW5       29.98R WCI  15
GARRISON         N/A     33  31  92 NW13      29.95S WCI  24
WILLISTON      CLOUDY    32  28  85 W7        29.99S
DICKINSON      CLOUDY    33  28  81 NW10      29.96F WCI  25
HETTINGER      CLOUDY    33  27  78 NW13      30.00S WCI  24
$$

 *****  OTHER AIRPORT OBSERVATIONS IN OUR AREA  *****

CITY           SKY/WX    TMP DP  RH WIND       PRES   REMARKS
WALHALLA         N/A     14  14 100 NW6       30.04R WCI   5
GRAFTON AIRPOR NOT AVBL
VALLEY CITY AR NOT AVBL
CANDO          CLOUDY    16  12  86 CALM      30.01R
CAVALIER APRT  CLOUDY    14  10  85 CALM      30.04S
GWINNER        SUNNY     19  19 100 N8        30.00R WCI   9
SHEYENNE NWR     N/A     18  13  79 N7        29.95S WCI   9
ROLLA          CLOUDY    14  12  92 S5        29.97S WCI   6
 ***** THE ABOVE OBSERVATIONS ARE NON NWS ARE NOT QUALITY
       CONTROLLED AND MAY MIS-REPORT RAIN FOR SNOW...
$$

  *****  WEATHER ACROSS NORTHERN MINNESOTA  *****

CITY           SKY/WX    TMP DP  RH WIND       PRES   REMARKS
FLAG ISLAND    PTCLDY     7   0  72 CALM      30.03R
WARROAD        CLOUDY     9   1  72 E7        30.01S WCI  -3
ROSEAU         CLOUDY    10   3  72 E5        30.01S WCI   2
HALLOCK        CLOUDY    10   5  79 CALM      30.05R
THF RVR FALLS  PTCLDY     9   3  78 NE5       30.02R WCI   0
BAUDETTE       CLOUDY     7  -2  66 E6        30.00R WCI  -3
WASKISH        CLOUDY    10   3  72 CALM      30.00R
CROOKSTON      CLEAR     12   9  85 NE3       30.04R
STEPHEN NDAWN    N/A      5   1  85 N1          N/A
GREENBUSH NDAW   N/A      9   3  78 E3          N/A
$$
  *****  WEATHER ACROSS CENTRAL AND WEST MINNESOTA  *****

CITY           SKY/WX    TMP DP  RH WIND       PRES   REMARKS
FOSSTON        PTCLDY     7   1  78 CALM      29.99R
BEMIDJI        CLOUDY    15   9  79 CALM      29.97R
PARK RAPIDS    CLOUDY    21  13  71 NE7       29.95R WCI  12
ELBOW LAKE     CLOUDY    22  21  94 NW8       29.96R WCI  13
WADENA         CLOUDY    21  18  86 NE3       29.95R
DETROIT LAKES  PTCLDY    19  16  86 NW3       29.97R
MOORHEAD       CLEAR     19  18  93 N7        30.00S WCI  10
FERGUS FALLS   CLOUDY    19  18  93 N8        30.00R WCI   9
MORRIS MN      MOCLDY    25  23  93 NW14      29.95R WCI  13
STAPLES        CLOUDY    21  16  79 E5        29.95R WCI  15
$$
  *****  WEATHER ELSEWHERE ACROSS MINNESOTA  *****

CITY           SKY/WX    TMP DP  RH WIND       PRES   REMARKS
DULUTH         FLURRIES  18  12  77 E10       29.96S WCI   6
INTRNTL FALLS  CLOUDY     3  -5  69 E6        30.02R WCI  -8
ELY            FLURRIES  -2  -6  84 CALM      30.01R
CLOQUET        CLOUDY    18  12  79 NE7       29.98R WCI   8
WHEATON        CLOUDY    19  18  93 NW8       30.00S WCI   9
BRAINERD       CLOUDY    20  13  74 E8        29.96R WCI  10
HIBBING        CLOUDY    14   6  70 NE5       29.98R WCI   6
ALEXANDRIA     CLOUDY    27  23  85 E8        29.92S WCI  19
SAINT CLOUD    MOCLDY    20  13  74 NE7       29.96R WCI  11
MINNEAPOLIS    MOCLDY    21  12  68 NE14      29.95R WCI   8
$$

  *****  WEATHER ACROSS SOUTH DAKOTA  *****

CITY           SKY/WX    TMP DP  RH WIND       PRES   REMARKS
SIOUX FALLS    CLOUDY    33  31  92 N12       29.92R WCI  24
BROOKINGS      NOT AVBL
WATERTOWN      CLOUDY    29  26  89 N9        29.93R WCI  20
HURON          CLOUDY    30  28  92 N10       29.98R WCI  21
SISSETON         N/A     23  21  92 N14       29.97R WCI  11
ABERDEEN       CLOUDY    28  24  85 N8        29.99R WCI  20
MITCHELL       CLOUDY    32  30  92 NW9       29.98R WCI  24
PIERRE         CLOUDY    37  31  78 NW15      29.99R
MOBRIDGE       CLOUDY    37  33  85 NW12      29.95R
RAPID CITY     CLEAR     29  21  72 N12       30.02R WCI  19
$$

  *****  SOME WEATHER IN NEARBY STATES *****

CITY           SKY/WX    TMP DP  RH WIND       PRES   REMARKS
GLASGOW MT     CLOUDY    30  26  85 SE7       29.98F WCI  23
GREAT FALLS MT CLOUDY    50  37  61 SW20      29.95F
CHEYENNE WY    MOCLDY    38  23  55 NW17G26   30.13R
SCOTTSBLUFF NE PTCLDY    32  27  81 NW9       30.11S WCI  24
OMAHA NE       CLOUDY    36  33  89 N24G33    29.81R
DES MOINES IA  LGT SNOW  35  32  88 N16       29.70R VSB 1
DAVENPORT IA   LGT SNOW  31  28  89 NE21      29.71R VSB 3/4 WCI  18
CHICAGO IL     LGT SNOW  31  29  92 NE16G25   29.75R FOG     WCI  20
EAU CLAIRE WI  CLOUDY    19  10  68 NE14      29.93R WCI   6
LA CROSSE WI   CLOUDY    28  20  71 NE10      29.89R WCI  19
$$

  *****  SOME NATIONAL WEATHER *****

CITY           SKY/WX    TMP DP  RH WIND       PRES   REMARKS
LA GUARDIA NY  PTSUNNY   37  27  67 SW12      29.71R
RALEIGH NC     MOSUNNY   37  28  70 SW5       29.94R
ATLANTA GA     MOSUNNY   36  28  73 SW8       29.95F
NEW ORLEANS LA MOSUNNY   47  43  86 S9        30.04F
OKLAHOMA CITY  PTCLDY    49  29  46 NW18      29.97R
ALBUQUERQUE NM PTCLDY    27  18  69 E3        30.29R
SALT LAKE CITY MOCLDY    33  28  81 SW3       30.46S
LOS ANGELES CA CLEAR     52  34  50 CALM      30.03R
BOISE ID       CLEAR     28  26  92 S6        30.43F WCI  22
SEATTLE WA     FOG       51  49  92 CALM      30.21R VSB 3/4
$$

*** WEATHER ACROSS MANITOBA...SASKATCHEWAN AND ONTARIO ***
                ***ONTARIO***

CITY           SKY/WX    TMP DP  RH WIND       PRES   REMARKS
GERALDTON      MOCLDY   -26 -31  75 CALM      30.07R
THUNDER BAY    MOCLDY   -13 -18  77 W3        30.14R
SIOUX LOOKOUT  MOCLDY    -9 -13  84 S3        30.05R
TORONTO        MOSUNNY   10   3  72 N21       29.90R WCI  -9
BIG TROUT LK   MOCLDY   -27 -33  75 SW2       30.09S
PICKLE LAKE    PTCLDY   -20 -26  76 SW2       30.06R
DRYDEN         CLOUDY    -4  -8  84 SE3       30.04R
KENORA         CLOUDY     1  -6  71 SE6       30.01R WCI -10
$$
                *** MANITOBA***

CITY           SKY/WX    TMP DP  RH WIND       PRES   REMARKS
BRANDON        CLOUDY    12   7  79 SW5       30.01R WCI   4
DAUPHIN        PTCLDY    10   9  92 SW2       29.95F
ISLAND LAKE    MOCLDY   -13 -18  77 SE6       30.01F WCI -27
PILOT MOUND      N/A     12   9  85 E1          N/A
THE PAS        LGT SNOW   7   3  85 S8        29.85F WCI  -6
THOMPSON       FLURRIES  -4  -9  77 S6        29.91F WCI -16
WINNIPEG       MOCLDY    14   5  67 S5        30.04F WCI   6
LYNN LAKE      FLURRIES   1  -2  85 S7        29.74F WCI -11
CHURCHILL      PTCLDY   -26 -33  68 S7        30.04F WCI -44
GILLAM         MOCLDY   -20 -26  76 SE2       30.01F
$$
                ***SASKATCHEWAN***

CITY           SKY/WX    TMP DP  RH WIND       PRES   REMARKS
ESTEVAN        LGT SNOW  27  25  93 NW5       29.95F FOG     WCI  21
KINDERSLEY     MOCLDY    32  25  74 S14       29.76F WCI  22
LLOYDMINSTER   LGT RAIN  34  28  80 S10       29.67F
PRINCE ALBERT  CLOUDY    28  27  93 SW9       29.79F WCI  20
REGINA         FOG       25  25 100 SE8       29.92F VSB 3/8 WCI  16
YORKTON        FLURRIES  12  10  92 SW9       29.91F WCI   0
N. BATTLEFORD  CLOUDY    36  27  69 SE3       29.77F
LA RONGE       MOCLDY    18  18 100 VRB2      29.68F
SASKATOON      CLOUDY    28  27  93 S7        29.85R WCI  21
SWIFT CURRENT  MOCLDY    34  25  69 SW16      29.81F WCI  23
$$
NOTE: THESE ARE AUTOMATED STATIONS WITH LIMITED QUALITY CONTROL
      "FAIR" INDICATES FEW OR NO CLOUDS BELOW 12,000 FEET WITH NO
      SIGNIFICANT WEATHER AND/OR OBSTRUCTIONS TO VISIBILITY.
      SKY/WX - SKY CONDITION AND SIGNIFICANT WEATHER.
      TMP - AIR TEMPERATURE.    DP   - DEWPOINT TEMPERATURE.
      RH  - RELATIVE HUMIDITY.  PRES - PRESSURE.
      HX  - HEAT INDEX.         WCI  - WIND CHILL INDEX.
$


USA.gov is the U.S. government's official web portal to all federal, state and local government web resources and services.